Total_Precipitation_Accumulation
0.03 0.04 0.09 0.12 0.13 0.16 0.20 0.25 0.31 0.27 0.25 0.34 0.45 0.66 0.90 1.05 1.26 1.46 1.44 1.44 1.54 1.63 1.89 2.12 2.29 2.49 2.80 3.06 3.25 3.51 3.77 4.17 4.47 4.88 5.23 5.42 5.62 5.83 5.91 5.89 5.89 5.85 5.78 5.92
0.06 0.07 0.07 0.09 0.09 0.11 0.15 0.21 0.29 0.31 0.29 0.33 0.49 0.69 0.93 1.04 1.18 1.42 1.49 1.56 1.61 1.72 1.90 2.26 2.62 3.03 3.29 3.50 3.59 3.86 4.21 4.52 4.69 5.08 5.61 6.12 6.36 6.45 6.47 6.51 6.66 6.68 6.64 6.81
0.08 0.08 0.07 0.07 0.07 0.08 0.12 0.17 0.20 0.28 0.35 0.42 0.61 1.04 1.25 1.25 1.37 1.51 1.54 1.69 1.72 1.81 2.09 2.40 2.89 3.25 3.36 3.49 3.63 3.82 4.38 4.88 5.33 5.76 6.34 6.85 7.20 7.22 7.07 6.75 6.86 7.01 6.81 6.83
0.08 0.07 0.06 0.07 0.07 0.09 0.13 0.15 0.17 0.24 0.39 0.54 0.60 1.26 1.63 1.70 1.73 1.64 1.67 1.80 1.79 1.82 2.07 2.42 2.73 3.04 3.22 3.35 3.66 3.94 4.39 5.08 5.61 5.90 6.54 7.23 7.47 7.71 7.76 7.57 7.28 7.09 6.82 6.64
0.07 0.07 0.09 0.09 0.09 0.09 0.12 0.12 0.18 0.23 0.31 0.51 0.56 1.03 1.79 1.93 2.05 1.89 1.85 1.90 1.76 1.72 1.88 2.25 2.49 2.81 3.24 3.36 3.48 3.69 4.25 4.90 5.65 6.29 6.80 7.42 7.88 8.14 8.08 7.66 7.19 6.66 6.32 5.86
0.07 0.07 0.07 0.08 0.07 0.07 0.11 0.16 0.27 0.33 0.44 0.71 0.66 1.00 1.91 2.21 2.37 2.46 2.16 1.93 1.75 1.70 1.77 1.95 2.24 2.55 2.89 2.96 3.21 3.50 3.95 4.68 5.40 6.00 6.60 7.13 7.53 7.65 7.36 6.82 6.28 5.90 5.54 5.01
0.14 0.10 0.08 0.07 0.09 0.10 0.14 0.31 0.65 0.86 0.97 0.93 0.71 1.05 1.89 2.10 1.95 2.06 2.12 2.15 1.93 1.71 1.79 2.02 2.23 2.55 2.72 2.78 3.03 3.40 3.94 4.58 4.98 5.44 5.95 6.29 6.51 6.65 6.62 6.33 5.87 5.48 4.97 4.48
0.26 0.24 0.11 0.06 0.10 0.15 0.16 0.31 0.81 1.12 1.11 1.09 1.08 1.56 2.22 2.05 1.72 1.73 1.87 2.02 1.84 1.76 1.94 2.26 2.37 2.55 2.74 2.77 2.97 3.35 3.81 4.20 4.39 4.58 4.98 5.32 5.49 5.53 5.41 5.26 4.87 4.55 4.18 3.86
0.31 0.31 0.13 0.08 0.09 0.11 0.21 0.28 0.43 0.65 0.72 1.10 1.59 2.13 2.73 2.53 1.98 1.79 1.82 1.86 1.92 1.89 1.98 2.27 2.44 2.55 2.67 2.71 2.89 3.09 3.37 3.53 3.71 3.86 4.07 4.31 4.37 4.28 4.14 3.98 3.74 3.54 3.34 2.99
0.30 0.30 0.21 0.13 0.14 0.15 0.21 0.32 0.46 0.75 1.09 1.48 1.82 2.58 3.41 3.26 2.58 2.12 1.99 1.94 1.95 1.92 1.96 2.17 2.28 2.40 2.47 2.46 2.57 2.66 2.87 3.02 3.20 3.28 3.32 3.25 3.30 3.25 3.09 2.90 2.79 2.61 2.43 2.33
0.38 0.42 0.30 0.23 0.24 0.27 0.29 0.38 0.57 0.75 0.85 1.44 2.13 3.06 3.26 3.31 2.99 2.58 2.14 1.90 1.87 1.87 1.87 1.96 2.05 2.07 2.10 2.10 2.18 2.34 2.51 2.69 2.79 2.80 2.87 2.82 2.71 2.52 2.41 2.27 2.17 2.09 2.03 2.02
0.39 0.52 0.49 0.33 0.29 0.25 0.29 0.41 0.62 0.98 1.03 1.20 1.86 3.08 3.10 3.32 3.22 2.88 2.47 2.16 2.04 1.96 1.84 1.76 1.78 1.80 1.83 1.89 2.01 2.17 2.22 2.31 2.36 2.46 2.51 2.55 2.48 2.32 2.13 2.01 1.92 1.91 1.92 1.90
0.38 0.63 0.91 0.92 0.78 0.45 0.35 0.37 0.48 0.65 0.95 1.33 1.93 3.07 3.13 3.09 3.05 3.00 2.76 2.40 2.18 2.07 1.88 1.81 1.79 1.76 1.79 1.96 2.01 1.99 2.09 2.14 2.20 2.36 2.38 2.38 2.43 2.30 2.10 2.00 2.01 1.99 1.94 1.91
0.32 0.64 1.09 1.47 1.39 0.83 0.60 0.46 0.49 0.69 1.15 1.36 1.72 2.45 2.74 2.82 2.95 3.14 3.09 2.61 2.18 2.08 1.99 2.04 2.08 2.02 1.94 2.00 2.17 2.15 2.22 2.26 2.28 2.28 2.21 2.04 1.97 1.98 1.99 1.95 1.91 1.86 1.82 1.85
0.41 0.72 0.66 0.62 0.65 0.66 0.62 0.59 0.61 0.73 0.84 1.24 1.66 2.19 2.63 2.81 2.79 2.85 2.73 2.52 2.16 2.07 2.18 2.16 2.09 2.08 1.98 1.95 2.13 2.26 2.27 2.22 2.45 2.51 2.37 2.18 1.98 1.95 1.97 1.92 1.85 1.79 1.73 1.64
0.46 0.71 0.68 0.65 0.55 0.64 0.68 0.70 0.80 0.90 0.97 1.20 1.72 2.44 2.76 2.86 2.82 2.84 2.75 2.59 2.51 2.41 2.34 2.32 2.30 2.28 2.21 2.10 2.17 2.33 2.31 2.24 2.39 2.42 2.49 2.51 2.40 2.35 2.21 2.01 1.92 1.90 1.87 1.82
0.49 0.78 1.04 1.04 0.68 0.91 1.37 1.04 1.00 1.18 1.26 1.51 2.13 2.48 2.42 2.54 2.71 2.92 2.99 2.88 2.78 2.76 2.62 2.59 2.62 2.56 2.56 2.53 2.46 2.47 2.38 2.31 2.36 2.49 2.56 2.54 2.50 2.40 2.29 2.04 1.93 1.97 1.95 1.90
0.53 0.88 1.17 1.24 1.33 2.05 1.86 1.13 1.10 1.34 1.56 1.74 2.01 2.12 2.16 2.20 2.32 2.47 2.61 2.75 2.74 2.68 2.61 2.65 2.77 2.75 2.73 2.63 2.58 2.49 2.41 2.47 2.58 2.65 2.63 2.53 2.37 2.31 2.22 2.14 2.09 2.04 1.95 1.87
0.38 0.82 1.29 1.46 1.83 2.06 1.88 1.23 1.26 1.73 2.31 1.95 1.94 1.83 1.66 1.64 1.94 2.44 2.49 2.51 2.67 2.70 2.67 2.65 2.64 2.63 2.68 2.61 2.52 2.47 2.43 2.47 2.51 2.51 2.38 2.30 2.30 2.31 2.14 2.12 2.08 2.03 1.94 1.83
0.43 0.67 1.29 1.60 2.19 2.58 2.34 1.27 1.06 1.64 2.91 2.21 1.92 1.86 1.73 1.84 2.38 2.63 2.44 2.40 2.36 2.37 2.43 2.35 2.21 2.16 2.35 2.50 2.49 2.38 2.31 2.30 2.27 2.09 1.92 1.82 1.92 2.01 1.88 1.78 1.75 1.76 1.77 1.76
1.04 1.17 1.46 1.78 2.35 2.57 1.57 0.96 1.17 2.49 3.08 2.34 1.94 1.83 1.81 2.10 2.33 2.11 1.91 2.02 2.06 2.03 1.94 1.89 1.86 1.94 2.08 2.14 2.18 2.21 2.12 2.14 2.03 1.85 1.75 1.74 1.71 1.72 1.68 1.70 1.70 1.64 1.59 1.64
1.35 1.55 1.67 1.91 2.51 2.66 1.34 1.14 1.85 2.28 1.88 1.80 1.75 1.69 1.65 1.63 1.54 1.54 1.59 1.62 1.63 1.65 1.62 1.57 1.69 1.80 1.85 1.79 1.80 1.91 1.91 1.92 1.81 1.71 1.64 1.69 1.67 1.56 1.63 1.81 1.75 1.68 1.69 1.67
1.41 1.56 1.75 2.01 2.42 2.08 1.40 1.37 1.52 1.55 1.53 1.43 1.43 1.39 1.33 1.32 1.16 1.22 1.41 1.33 1.27 1.29 1.36 1.43 1.48 1.62 1.73 1.73 1.75 1.80 1.77 1.69 1.67 1.71 1.65 1.58 1.51 1.60 1.67 1.79 1.75 1.67 1.63 1.52
1.44 1.19 1.44 1.69 1.79 1.58 1.41 1.36 1.29 1.17 1.15 1.09 1.17 1.31 1.27 1.25 1.25 1.30 1.35 1.28 1.19 1.22 1.24 1.32 1.38 1.44 1.58 1.56 1.57 1.70 1.64 1.58 1.69 1.78 1.70 1.56 1.46 1.45 1.52 1.59 1.61 1.52 1.45 1.37
1.41 1.39 1.53 1.69 1.67 1.58 1.56 1.35 1.22 1.12 1.01 0.97 1.04 1.14 1.22 1.27 1.32 1.33 1.30 1.25 1.26 1.34 1.37 1.37 1.40 1.40 1.39 1.39 1.41 1.42 1.45 1.55 1.72 1.68 1.53 1.40 1.28 1.24 1.29 1.29 1.28 1.28 1.18 1.14
1.14 1.39 1.65 1.78 1.55 1.59 1.69 1.40 1.17 1.14 1.07 1.04 1.05 1.14 1.27 1.31 1.41 1.35 1.26 1.22 1.25 1.31 1.31 1.37 1.33 1.24 1.24 1.31 1.35 1.28 1.22 1.35 1.60 1.57 1.33 1.18 1.10 1.06 0.98 0.96 0.98 0.98 0.97 0.94